Grand Junction, CO

8:44 PM MST on February 12, 2016 (GMT -0700)
Walker

Weather History for KGJT - September, 2011

Change the Weather History Date:

Sunday, September 11, 2011

  Actual Average Record
Temperature  
Mean Temperature 69 °F 68 °F  
Max Temperature 80 °F 82 °F 94 °F (1990)
Min Temperature 57 °F 54 °F 38 °F (1898)
Degree Days  
Heating Degree Days 0 1  
Month to date heating degree days 1 7  
Since 1 July heating degree days 1 10  
Cooling Degree Days 4 4  
Month to date cooling degree days 71 62  
Year to date cooling degree days 1165 1081  
Growing Degree Days 18 (Base 50)    
Moisture  
Dew Point 45 °F    
Average Humidity 46    
Maximum Humidity 62    
Minimum Humidity 30    
Precipitation  
Precipitation 0.00 in 0.03 in 0.99 in (1982)
Month to date precipitation 0.28 0.41  
Year to date precipitation 6.94 6.26  
Snow  
Snow 0.00 in 0.00 in 0.00 in (2014)
Month to date snowfall 0.0 0.0  
Since 1 July snowfall 0.0 0.0  
Since 1 September snowfall 0.0 0.0  
Snow Depth 0.00 in    
Sea Level Pressure  
Sea Level Pressure 30.09 in    
Wind  
Wind Speed 8 mph (SE)    
Max Wind Speed 22 mph    
Max Gust Speed 28 mph    
Visibility 10 miles    
Events      
T = Trace of Precipitation, MM = Missing Value Source: NWS Daily Summary

Daily Weather History Graph

Daily Weather History Graph

Search for Another Location

Airport or City:

Trip Planner

Search our weather history database for the weather conditions in past years. The results will help you decide how hot, cold, wet, or windy it might be!

Date:

Astronomy

Sep. 11, 2011 Rise Set
Actual Time 6:51 AM MDT 7:29 PM MDT
Civil Twilight 6:24 AM MDT 7:56 PM MDT
Nautical Twilight 5:52 AM MDT 8:27 PM MDT
Astronomical Twilight 5:20 AM MDT 9:00 PM MDT
Moon 6:52 PM MDT (9/11) 6:13 AM MDT (9/11)
Length of Visible Light 13h 31m
Length of Day
12h 37m
Full, 100% of the Moon is Illuminated
Sep 11
Full
Sep 12
Full
Sep 20
Last Quarter
Sep 27
New
Oct 3
First Quarter

Hourly Weather History & Observations

Time (MDT) Temp. Dew Point Humidity Pressure Visibility Wind Dir Wind Speed Gust Speed Precip Events Conditions
12:53 AM 62.1 °F 44.1 °F 52% 30.04 in 10.0 mi Calm Calm - N/A   Clear
1:53 AM 64.0 °F 43.0 °F 46% 30.03 in 10.0 mi ENE 3.5 mph - N/A   Partly Cloudy
2:53 AM 63.0 °F 44.1 °F 50% 30.03 in 10.0 mi SE 9.2 mph - N/A   Scattered Clouds
3:53 AM 63.0 °F 43.0 °F 48% 30.03 in 10.0 mi ESE 4.6 mph - N/A   Partly Cloudy
4:53 AM 59.0 °F 43.0 °F 55% 30.04 in 10.0 mi ESE 8.1 mph - N/A   Clear
5:53 AM 57.2 °F 44.6 °F 63% 30.25 in 10.0 mi ESE 11.5 mph - N/A   Clear
6:53 AM 59.0 °F 43.0 °F 55% 30.09 in 10.0 mi SE 6.9 mph - N/A   Clear
7:53 AM 60.1 °F 44.1 °F 55% 30.12 in 10.0 mi East 9.2 mph - N/A   Clear
8:53 AM 64.9 °F 44.1 °F 47% 30.12 in 10.0 mi ESE 10.4 mph - N/A   Mostly Cloudy
9:53 AM 68.0 °F 44.1 °F 42% 30.14 in 10.0 mi SE 8.1 mph - N/A   Mostly Cloudy
10:53 AM 71.6 °F 44.6 °F 38% 30.31 in 10.0 mi NE 3.5 mph - N/A   Mostly Cloudy
11:53 AM 73.9 °F 45.0 °F 35% 30.12 in 10.0 mi WSW 4.6 mph - N/A   Scattered Clouds
12:53 PM 73.4 °F 44.6 °F 36% 30.26 in 10.0 mi Calm Calm - N/A   Scattered Clouds
1:53 PM 77.0 °F 45.0 °F 32% 30.05 in 10.0 mi Variable 3.5 mph - N/A   Scattered Clouds
2:53 PM 78.1 °F 44.1 °F 30% 30.01 in 10.0 mi South 3.5 mph - N/A   Scattered Clouds
3:53 PM 75.0 °F 46.9 °F 37% 30.02 in 10.0 mi West 15.0 mph - N/A   Mostly Cloudy
4:53 PM 75.0 °F 46.9 °F 37% 30.03 in 10.0 mi SSW 9.2 mph - N/A   Mostly Cloudy
5:53 PM 75.9 °F 42.1 °F 30% 30.02 in 10.0 mi SSE 8.1 mph - N/A   Overcast
6:53 PM 72.0 °F 46.0 °F 40% 30.04 in 10.0 mi SSE 16.1 mph - N/A   Overcast
7:53 PM 66.9 °F 51.1 °F 57% 30.05 in 10.0 mi SSE 10.4 mph - N/A   Clear
8:53 PM 66.0 °F 46.9 °F 50% 30.07 in 10.0 mi East 11.5 mph - N/A   Clear
9:53 PM 64.0 °F 48.0 °F 56% 30.08 in 10.0 mi East 11.5 mph - N/A   Clear
10:53 PM 63.0 °F 46.9 °F 56% 30.07 in 10.0 mi ESE 5.8 mph - N/A   Clear
11:53 PM 63.0 °F 46.9 °F 56% 30.09 in 10.0 mi SE 8.1 mph - N/A   Clear